This is the latest recevied weather packets stored in our database for station/object AC2VK-1. If no packets are shown the sender has not sent any weather packets the latest 10 day(s).
| Time | Temp. | Humidity | Pressure | Rain* | Wind** | Luminosity | Snow |
|---|---|---|---|---|---|---|---|
| 1777984157 | 14.44° C | 74% | 1016.3 hPa | 0 mm | - | - | - |
| 1777983557 | 13.89° C | 75% | 1016.3 hPa | 0 mm | - | - | - |
| 1777982957 | 13.33° C | 75% | 1016.2 hPa | 0 mm | - | - | - |
| 1777982357 | 13.33° C | 75% | 1016.3 hPa | 0 mm | - | - | - |
| 1777981757 | 12.78° C | 75% | 1016.1 hPa | 0 mm | - | - | - |
| 1777981157 | 12.78° C | 75% | 1016 hPa | 0 mm | - | - | - |
| 1777980557 | 13.33° C | 74% | 1015.8 hPa | 0 mm | - | - | - |
| 1777979957 | 14.44° C | 66% | 1015.6 hPa | 0 mm | - | - | - |
| 1777979357 | 13.89° C | 66% | 1015.4 hPa | 0 mm | - | - | - |
| 1777978757 | 14.44° C | 66% | 1015.1 hPa | 0 mm | - | - | - |
| 1777978157 | 15° C | 63% | 1015.2 hPa | 0 mm | - | - | - |
| 1777977557 | 15° C | 63% | 1015.3 hPa | 0 mm | - | - | - |
| 1777976957 | 15.56° C | 61% | 1015.3 hPa | 0 mm | - | - | - |
| 1777976357 | 15.56° C | 60% | 1015.3 hPa | 0 mm | - | - | - |
| 1777975757 | 16.11° C | 59% | 1015.4 hPa | 0 mm | - | - | - |
| 1777975157 | 16.11° C | 58% | 1015.5 hPa | 0 mm | - | - | - |
| 1777974557 | 16.67° C | 58% | 1015.5 hPa | 0 mm | - | - | - |
| 1777973957 | 16.67° C | 59% | 1015.4 hPa | 0 mm | - | - | - |
| 1777973357 | 16.11° C | 59% | 1015.5 hPa | 0 mm | - | - | - |
| 1777972757 | 16.11° C | 60% | 1015.5 hPa | 0 mm | - | - | - |
| 1777972157 | 16.11° C | 61% | 1015.4 hPa | 0 mm | - | - | - |
| 1777971557 | 16.11° C | 60% | 1015.3 hPa | 0 mm | - | - | - |
| 1777970957 | 16.67° C | 60% | 1015.2 hPa | 0 mm | - | - | - |
| 1777970357 | 16.67° C | 60% | 1015.2 hPa | 0 mm | - | - | - |
| 1777969757 | 16.11° C | 61% | 1015.1 hPa | 0 mm | - | - | - |
* Rain latest hour (hover to see other rain measurements)
** Current wind speed in m/s (hover to see current wind gust speed)